DW2465 Weather Reports


time (UTC)temp
C
wind
direction
speed
KPH
gust
KPH
rain 1hr
cm
rain 24hr
cm
rain mn
cm
humidity
%
barometer
mb
20260831010013 27 144 0.0 0.0 0.00 0.00 0.00 73 1005.7
20260831004510 27 151 0.0 0.0 0.00 0.00 0.00 71 1005.4
20260831003010 27 159 0.0 0.0 0.00 0.00 0.00 70 1005.5
20260831001512 28 140 0.0 0.0 0.00 0.00 0.00 69 1005.3
20260831000003 28 148 0.0 0.0 0.00 0.00 0.00 71 1005.2
20260830234501 28 127 0.0 0.0 0.00 0.00 0.00 70 1005.1
20260830233002 28 124 0.0 0.0 0.00 0.00 0.00 72 1004.8
20260830231605 28 103 0.0 0.0 0.00 0.00 0.00 72 1005.0
20260830230057 28 77 0.0 0.0 0.00 0.00 0.00 72 1004.9
20260830224607 28 105 0.0 0.0 0.00 0.00 0.00 71 1005.1
20260830223056 28 71 0.0 0.0 0.00 0.00 0.00 72 1005.0
20260830221524 28 97 0.0 0.0 0.00 0.00 0.00 72 1005.0
20260830220022 27 92 0.0 0.0 0.00 0.00 0.00 73 1005.1
20260830214551 27 123 0.0 0.0 0.00 0.00 0.00 73 1005.1
20260830213049 27 103 0.0 0.0 0.00 0.00 0.00 72 1005.4
20260830211546 27 76 0.0 0.0 0.00 0.00 0.00 73 1005.4
20260830210056 27 117 0.0 0.0 0.00 0.00 0.00 73 1005.7
20260830204547 27 130 0.0 0.0 0.00 0.00 0.00 72 1005.7
20260830203043 28 117 0.0 0.0 0.00 0.00 0.00 70 1006.0
20260830201539 27 119 0.0 0.0 0.00 0.00 0.00 72 1006.0
20260830200048 27 88 0.0 0.0 0.00 0.00 0.00 71 1006.0
20260830194543 27 49 0.0 0.0 0.00 0.00 0.00 72 1005.9
20260830193032 27 80 0.0 0.0 0.00 0.00 0.00 73 1006.2
20260830191529 27 345 0.0 0.0 0.00 0.00 0.00 72 1006.0
20260830190032 27 355 0.0 0.0 0.00 0.00 0.00 75 1006.2
20260830184524 26 84 0.0 0.0 0.00 0.00 0.00 77 1006.7
20260830183022 26 103 0.0 0.0 0.00 0.00 0.00 76 1007.1
20260830181517 25 86 0.0 0.0 0.00 0.00 0.00 77 1007.0
20260830180017 24 80 0.0 0.0 0.00 0.00 0.00 81 1006.9
20260830174510 24 92 0.0 0.0 0.00 0.00 0.00 82 1007.0
20260830173009 23 98 0.0 0.0 0.00 0.00 0.00 84 1007.3
20260830171505 23 78 0.0 0.0 0.00 0.00 0.00 83 1007.6
20260830170010 23 13 0.0 0.0 0.00 0.00 0.00 82 1007.5
20260830164509 23 141 0.0 0.0 0.00 0.00 0.00 83 1007.6
20260830163002 23 75 0.0 0.0 0.00 0.00 0.00 83 1007.3
20260830161624 23 88 0.0 0.0 0.00 0.00 0.00 84 1006.9
20260830160054 22 62 0.0 0.0 0.00 0.00 0.00 86 1006.7
20260830154553 22 68 0.0 0.0 0.00 0.00 0.00 87 1006.7
20260830153053 22 69 0.0 0.0 0.00 0.00 0.00 86 1006.9
20260830151551 22 57 0.0 0.0 0.00 0.00 0.00 86 1006.9
20260830150106 22 107 0.0 0.0 0.00 0.00 0.00 86 1007.0
20260830144545 21 116 0.0 0.0 0.00 0.00 0.00 87 1007.0
20260830143042 21 44 0.0 0.0 0.00 0.00 0.00 89 1006.6
20260830141543 21 106 0.0 0.0 0.00 0.00 0.00 90 1006.8
20260830140011 21 66 0.0 0.0 0.00 0.00 0.00 90 1007.1
20260830134514 20 88 0.0 0.0 0.00 0.00 0.00 91 1007.4
20260830133009 20 50 0.0 0.0 0.00 0.00 0.00 92 1007.4
20260830131511 20 74 0.0 0.0 0.00 0.00 0.00 93 1007.1
20260830130007 20 61 0.0 0.0 0.00 0.00 0.00 93 1007.0
20260830124506 20 72 0.0 0.0 0.00 0.00 0.00 93 1006.8
20260830123004 20 96 0.0 0.0 0.00 0.00 0.00 93 1007.0
20260830121503 20 45 0.0 0.0 0.00 0.00 0.00 93 1006.6
20260830120002 20 62 0.0 0.0 0.00 0.00 0.00 92 1006.7
20260830114503 20 59 0.0 0.0 0.00 0.00 0.00 92 1006.9
20260830113001 20 106 0.0 0.0 0.00 0.00 0.00 92 1006.3
20260830111501 20 68 0.0 0.0 0.00 0.00 0.00 92 1006.4
20260830110100 20 74 0.0 0.0 0.00 0.00 0.00 92 1006.7
20260830104606 20 101 0.0 0.0 0.00 0.00 0.00 92 1007.1
20260830103059 20 80 0.0 0.0 0.00 0.00 0.00 91 1007.1
20260830101556 20 90 0.0 0.0 0.00 0.00 0.00 91 1006.8
20260830100054 20 94 0.0 0.0 0.00 0.00 0.00 91 1007.2
20260830094552 20 94 0.0 0.0 0.00 0.00 0.00 91 1006.8
20260830093051 20 90 0.0 0.0 0.00 0.00 0.00 91 1006.6
20260830091552 20 72 0.0 0.0 0.00 0.00 0.00 90 1006.4
20260830090047 20 120 0.0 0.0 0.00 0.00 0.00 90 1006.7
20260830084545 20 125 0.0 0.0 0.00 0.00 0.00 90 1006.8
20260830083053 20 87 0.0 0.0 0.00 0.00 0.00 90 1006.8
20260830081542 20 88 0.0 0.0 0.00 0.00 0.00 90 1006.8
20260830080036 20 79 0.0 0.0 0.00 0.00 0.00 89 1006.9
20260830074547 20 78 0.0 0.0 0.00 0.00 0.00 89 1007.0
20260830073035 20 78 0.0 0.0 0.00 0.00 0.00 88 1007.1
20260830071535 21 78 0.0 0.0 0.00 0.00 0.00 88 1007.6
20260830070029 21 78 0.0 0.0 0.00 0.00 0.00 88 1007.0
20260830064531 21 94 0.0 0.0 0.00 0.00 0.00 87 1007.5
20260830063026 21 95 0.0 0.0 0.00 0.00 0.00 87 1007.3
20260830061528 21 52 0.0 0.0 0.00 0.00 0.00 87 1007.2
20260830060021 21 62 0.0 0.0 0.00 0.00 0.00 87 1007.6
20260830054522 21 115 0.0 0.0 0.00 0.00 0.00 88 1007.8
20260830053017 21 109 0.0 0.0 0.00 0.00 0.00 88 1007.8
20260830051515 21 92 0.0 0.0 0.00 0.00 0.00 88 1007.8
20260830050012 21 111 0.0 0.0 0.00 0.00 0.00 87 1007.9
20260830044510 21 98 0.0 0.0 0.00 0.00 0.00 87 1007.9
20260830043010 21 94 0.0 0.0 0.00 0.00 0.00 87 1008.0
20260830041509 21 105 0.0 0.0 0.00 0.00 0.00 86 1008.0
20260830040039 21 104 0.0 0.0 0.00 0.00 0.00 85 1008.2
20260830034538 22 105 0.0 0.0 0.00 0.00 0.00 85 1008.0
20260830033007 22 89 0.0 0.0 0.00 0.00 0.00 85 1008.3
20260830031507 22 60 0.0 0.0 0.00 0.00 0.00 85 1008.2
20260830030044 22 98 0.0 0.0 0.00 0.00 0.00 85 1008.3
20260830024536 22 62 0.0 0.0 0.00 0.00 0.00 84 1008.1
20260830023033 22 49 0.0 0.0 0.00 0.00 0.00 84 1007.8
20260830021534 22 88 0.0 0.0 0.00 0.00 0.00 83 1007.7
20260830020039 22 58 0.0 0.0 0.00 0.00 0.00 82 1007.7
20260830014535 23 42 0.0 0.0 0.00 0.00 0.00 81 1007.5
20260830013028 23 74 0.0 0.0 0.00 0.00 0.00 80 1007.5
20260830011528 23 55 0.0 0.0 0.00 0.00 0.00 80 1007.2